Weather History for Calgary Springbank, AB

Change the Weather History Date:

Friday, October 11, 2013

  Actual Average Record
Temperature  
Mean Temperature 34 °F -  
Max Temperature 45 °F 43 °F 60 °F (2004)
Min Temperature 23 °F 22 °F 14 °F (2002)
Degree Days  
Heating Degree Days 31    
Moisture  
Dew Point 26 °F    
Average Humidity 72    
Maximum Humidity 100    
Minimum Humidity 31    
Precipitation  
Precipitation 0.08 in - - ()
Sea Level Pressure  
Sea Level Pressure 30.13 in    
Wind  
Wind Speed 4 mph ()    
Max Wind Speed 7 mph    
Max Gust Speed -    
Visibility 15.0 miles    
Events      
Averages and records for this station are not official NWS values.
T = Trace of Precipitation, MM = Missing Value Source: Averaged Metar Reports

Daily Weather History Graph

Daily Weather History Graph

Search for Another Location

Airport:

Trip Planner

Search our weather history database for the weather conditions in past years. The results will help you decide how hot, cold, wet, or windy it might be!

Date:

Astronomy

Oct. 11, 2013 Rise Set
Actual Time 7:54 AM MDT 6:52 PM MDT
Civil Twilight 7:21 AM MDT 7:25 PM MDT
Nautical Twilight 6:43 AM MDT 8:03 PM MDT
Astronomical Twilight 6:04 AM MDT 8:42 PM MDT
Moon 3:00 PM MDT (10/11) No Moon Set
Length of Visible Light 12h 03m
Length of Day
10h 57m
Waxing Crescent, 48% of the Moon is Illuminated
Oct 11
Waxing Crescent
Oct 11
First Quarter
Oct 18
Full
Oct 26
Last Quarter
Nov 3
New

Hourly Weather History & Observations

Time (MDT) Temp. Windchill Dew Point Humidity Pressure Visibility Wind Dir Wind Speed Gust Speed Precip Events Conditions
5:00 AM 23.0 °F 14.7 °F 23.0 °F 100% 30.10 in 15.0 mi WNW 6.9 mph - N/A   Partly Cloudy
6:00 AM 26 °F - 25 °F 96% 30.13 in 15 mi WNW 6.9 mph - -   Partly Cloudy
6:00 AM 26.6 °F 19.1 °F 24.8 °F 93% 30.13 in 15.0 mi WNW 6.9 mph - N/A   Mostly Cloudy
7:00 AM 28.4 °F 22.2 °F 26.6 °F 93% 30.14 in 15.0 mi NW 5.8 mph - N/A   Mostly Cloudy
8:00 AM 28.4 °F 22.2 °F 28.4 °F 100% 30.14 in 30.0 mi WNW 5.8 mph - N/A   Mostly Cloudy
9:00 AM 30.2 °F 25.4 °F 30.2 °F 100% 30.15 in 25.0 mi NNW 4.6 mph - N/A   Mostly Cloudy
10:00 AM 32.0 °F 28.7 °F 30.2 °F 93% 30.15 in 25.0 mi NW 3.5 mph - N/A   Mostly Cloudy
11:00 AM 35.6 °F 32.8 °F 33.8 °F 93% 30.16 in 25.0 mi NW 3.5 mph - N/A   Mostly Cloudy
12:00 PM 39 °F - 31 °F 65% 30.15 in 25 mi NNW 4.6 mph - -   Mostly Cloudy
12:00 PM 39.2 °F 35.9 °F 32.0 °F 75% 30.15 in 25.0 mi NNW 4.6 mph - N/A   Mostly Cloudy
1:00 PM 39.2 °F - 28.4 °F 65% 30.14 in 30.0 mi Variable 2.3 mph - N/A   Mostly Cloudy
2:00 PM 42.8 °F - 28.4 °F 57% 30.12 in 30.0 mi Variable 2.3 mph - N/A   Scattered Clouds
3:00 PM 44.6 °F - 21.2 °F 39% 30.11 in 30.0 mi Calm Calm - N/A   Mostly Cloudy
4:00 PM 42.8 °F 41.1 °F 19.4 °F 39% 30.13 in 30.0 mi NNE 3.5 mph - N/A   Mostly Cloudy
5:00 PM 44.6 °F 43.1 °F 19.4 °F 37% 30.12 in 30.0 mi East 3.5 mph - N/A   Mostly Cloudy
6:00 PM 42 °F - 22 °F 31% 30.13 in 28 mi South 4.6 mph - -   Scattered Clouds
6:00 PM 41.0 °F 38.0 °F 21.2 °F 45% 30.13 in 30.0 mi South 4.6 mph - N/A   Partly Cloudy
7:00 PM 35.6 °F - 21.2 °F 56% 30.13 in 25.0 mi SSE 2.3 mph - N/A   Partly Cloudy
8:00 PM 32.0 °F 28.7 °F 23.0 °F 69% 30.15 in 15.0 mi South 3.5 mph - N/A   Mostly Cloudy
9:00 PM 30.2 °F 26.7 °F 26.6 °F 86% 30.17 in 15.0 mi West 3.5 mph - N/A   Mostly Cloudy
10:00 PM 33.8 °F 30.8 °F 28.4 °F 81% 30.03 in 15.0 mi WNW 3.5 mph - N/A   Overcast